Location: Ar Fournig
(48.3333°N, 4.8833°W)
Time: 12:42:04
(UTC+00:00)

Daily predictions for brighter satellites

Satellite Brightness Start Highest point End
(mag) Time Altitude Azimuth Time Altitude Azimuth Time Altitude Azimuth
SL-16 R/B 2.6 16:52:41 10° S 16:58:01 45° ESE 17:03:24 10° NE
Landsat 5 4.1 16:55:18 10° NNE 16:59:34 43° E 17:03:51 10° S
Cosmos 2154 Rocket 4.2 16:56:47 10° N 17:03:09 82° W 17:09:30 10° S
SMAP 3.4 17:02:09 10° SE 17:06:32 43° ENE 17:10:57 10° N
Sich 1 3.0 17:02:55 10° N 17:07:19 75° E 17:11:38 10° SSE
CZ-4C R/B 3.2 17:07:03 10° NNE 17:10:38 54° E 17:14:09 10° S
Cosmos 1470 Rocket 4.4 17:08:20 10° NNE 17:12:03 27° ENE 17:15:44 10° SE
Cosmos 1151 Rocket 3.7 17:08:48 10° SSE 17:12:37 32° E 17:16:26 10° NNE
Cosmos 482 Debris 2.9 17:19:27 10° WNW 17:21:13 56° SSW 17:23:04 10° SE
SL-8 Rocket 4.0 17:15:03 10° N 17:21:15 61° ENE 17:27:27 10° SSE
CZ-2C R/B 4.3 17:19:37 10° E 17:22:40 17° ENE 17:25:39 10° NNE
Cosmos 2341 Rocket 4.0 17:16:31 10° N 17:22:52 80° E 17:29:13 10° SSE
CZ-4B DEB 4.4 17:18:21 10° S 17:23:49 77° WSW 17:29:19 10° NNW
TELKOM 3 3.3 17:21:35 10° W 17:24:27 58° N 17:26:18 16° ENE
COSMO-SKYMED 1 4.1 17:23:07 11° NE 17:25:49 17° E 17:28:41 10° SE
Cosmos 2360 Rocket 4.5 17:24:27 10° NW 17:26:38 12° NNW 17:28:49 10° N
X-37B 2.3 17:24:15 10° SW 17:26:54 24° SSE 17:29:28 11° ESE
Cosmos 2333 Rocket 4.2 17:23:07 10° W 17:27:18 21° NW 17:31:29 10° N
Radarsat Rocket 4.3 17:22:15 10° SSE 17:28:27 89° WSW 17:35:30 10° NNW
Cosmos 2219 Rocket 4.2 17:25:03 10° W 17:29:16 21° NW 17:33:30 10° N
USA 281 4.0 17:24:44 10° E 17:30:09 29° NE 17:35:36 10° N
USA 81 4.1 17:25:44 10° N 17:30:57 57° E 17:36:09 10° SSE
Cosmos 2285 Rocket 4.0 17:26:45 10° NNW 17:33:12 87° ENE 17:39:33 10° SSE
CORIOLIS 4.1 17:28:31 10° SSE 17:33:54 68° ENE 17:39:19 10° N
Helios 1A Rocket 4.4 17:33:25 15° ENE 17:34:03 15° ENE 17:36:27 10° NNE
Meteor 1-4 Rocket 3.2 17:31:14 10° SSE 17:34:28 33° E 17:37:26 11° NNE
H-2A R/B 3.4 17:35:17 13° E 17:37:36 17° ENE 17:40:46 10° NNE
Cosmos 1939 Rocket 3.5 17:36:18 10° SE 17:39:44 31° ENE 17:43:14 10° N
USA 267 3.7 17:34:11 13° E 17:39:47 46° NNE 17:45:58 10° WNW
Cosmos 389 Rocket 3.4 17:37:01 10° SSW 17:40:18 46° WNW 17:43:38 10° N
Cosmos 1328 Rocket 3.6 17:36:14 10° S 17:40:27 55° E 17:44:44 10° NNE
Cosmos 44 Rocket 4.1 17:36:19 10° NNW 17:41:01 34° NE 17:45:08 13° E
CZ-4 R/B 2.7 17:41:26 18° ENE 17:42:11 18° ENE 17:45:00 10° NNE
Cosmos 1933 Rocket 4.1 17:38:02 10° N 17:42:13 37° ENE 17:46:22 10° SE
Cosmos 1666 Rocket 3.8 17:38:54 10° NNW 17:43:20 74° W 17:47:46 10° S
Meteor 1-20 Rocket 4.3 17:38:37 10° NNW 17:44:31 88° W 17:50:19 10° S
Cosmos 1602 3.8 17:41:00 10° N 17:44:52 55° ENE 17:48:41 10° SSE
Cosmos 2181 Rocket 4.0 17:42:03 10° S 17:48:27 78° E 17:54:48 10° NNE
H-2A R/B 3.6 17:44:46 10° S 17:48:51 48° W 17:52:50 10° NNW
Cosmos 2237 Rocket 3.6 17:44:00 10° WSW 17:49:06 35° NW 17:54:17 10° NNE
NOAA 11 4.1 17:44:30 10° SSE 17:49:54 71° ENE 17:55:20 10° N
CZ-4B R/B 3.3 17:45:52 10° S 17:51:10 76° WSW 17:56:29 10° NNW
Cosmos 1603 4.3 17:48:40 10° S 17:53:41 35° ESE 17:56:56 19° NE
Meteor 1-26 Rocket 4.3 17:48:02 10° S 17:54:01 69° E 17:59:59 10° NNE
CZ-2D R/B 3.9 17:53:08 10° SE 17:56:33 32° ENE 18:00:02 10° N
Cosmos 1943 3.9 17:52:06 10° SSE 17:57:05 33° ESE 17:59:58 21° ENE
Cosmos 2369 Rocket 2.1 17:52:00 10° NNW 17:57:43 73° ENE 18:03:21 10° SE
H-2A R/B 2.4 17:53:46 10° N 17:57:58 67° WNW 18:02:14 10° SSW
Cosmos 1943 Rocket 2.4 17:53:25 10° NNW 17:58:58 73° WSW 18:04:32 10° SSE
Cosmos 1538 Rocket 4.1 17:53:56 10° S 17:59:11 58° ESE 18:03:44 14° NNE
NOAA 12 4.5 17:54:43 10° S 18:00:01 68° WSW 18:05:21 10° NNW
Meteor 1-14 Rocket 4.3 17:54:19 10° N 18:00:18 69° ENE 18:06:16 10° SSE
Cosmos 1782 2.7 17:58:54 10° S 18:02:50 68° E 18:06:46 10° NNE
ADEOS Rocket 4.3 17:55:37 10° N 18:03:07 55° WNW 18:10:33 10° SW
Okean O Rocket 2.1 17:58:58 10° S 18:03:17 63° WSW 18:07:40 10° NNW
Okean-O 3.3 18:01:04 10° SE 18:05:00 32° ENE 18:08:58 10° N
ISS -3.3 18:01:43 10° WNW 18:05:00 48° N 18:05:55 36° NE
CENTAUR R/B 3.7 18:03:00 10° SSE 18:07:13 20° ESE 18:07:44 20° E
Cosmos 1633 Rocket 4.0 18:03:13 10° NNW 18:07:28 50° W 18:11:39 10° SSW
ARGOS 4.3 18:08:32 23° NE 18:08:32 23° NE 18:12:08 10° N
Cosmos 1933 4.2 18:04:53 10° SSW 18:08:50 50° WNW 18:12:49 10° N
Cosmos 2056 Rocket 4.4 18:04:36 10° N 18:09:01 26° NE 18:09:28 26° ENE
SL-08 R/B 4.3 18:05:14 10° N 18:11:24 72° E 18:17:29 10° SSE
ERS-2 2.1 18:10:45 26° NNE 18:12:38 60° ESE 18:16:15 10° S
SKYMED 2 3.7 18:11:44 22° NNE 18:14:15 49° E 18:18:27 10° S
Cosmos 1869 Rocket 4.1 18:12:47 10° N 18:16:57 36° ENE 18:17:49 33° E
BREEZE-M DEB (TANK) 4.2 18:10:05 10° SW 18:18:30 36° SSE 18:19:59 27° ESE
Cosmos 2366 rocket 4.5 18:16:26 10° NNW 18:22:31 62° W 18:28:33 10° S
Lacrosse 5 rocket 2.0 18:21:37 10° W 18:25:00 36° NNW 18:25:53 31° N
Meteor 1-10 Rocket 4.4 18:20:48 10° SSE 18:26:06 45° E 18:28:49 26° NE
BREEZE-M DEB (TANK) 2.2 18:24:51 10° W 18:26:37 58° NW 18:26:37 58° NW
Cosmos 371 Rocket 3.8 18:23:45 10° N 18:28:01 36° NE 18:28:01 36° NE
Cosmos 489 Rocket 4.5 18:22:21 10° SSW 18:28:34 83° WNW 18:34:18 13° NNE
CZ-4B R/B 1.7 18:29:34 34° N 18:30:42 59° WNW 18:33:48 10° SSW
NOSS 3-2 (A) 3.5 18:34:32 10° SSW 18:39:58 51° ESE 18:41:27 42° E
Cosmos 1500 3.2 18:37:04 10° NNW 18:40:54 77° W 18:44:43 10° S
SL-16 R/B 3.5 18:37:06 10° WSW 18:42:16 36° NW 18:46:58 12° NNE
Cosmos 2239 Rocket 4.3 18:37:24 10° N 18:43:36 74° E 18:49:47 10° SSE
YAOGAN 1 2.5 18:46:29 63° NE 18:46:29 63° NE 18:50:23 10° N
USA 215 3.5 18:46:42 40° E 18:48:34 51° SE 18:54:54 10° SSW
SL-24 DEB 4.5 18:45:13 10° N 18:49:57 70° W 18:54:37 10° SSW
Cosmos 1656 Rocket 3.7 18:47:07 10° NNW 18:52:46 77° WSW 18:58:19 10° SSE
MOS 1 Rocket 3.5 18:52:44 50° NE 18:53:56 64° E 18:59:15 10° S
NOAA 15 4.5 18:53:43 10° SSE 18:59:01 90° E 19:04:19 10° NNW
USA 238 DEB 3.6 18:52:47 10° SSW 18:59:14 62° ESE 19:00:35 52° ENE
USA 238 3.6 18:52:53 10° SSW 18:59:20 62° ESE 19:00:39 52° ENE
SL-23 DEB 4.4 18:55:42 10° WSW 18:59:44 86° NNW 19:00:29 66° ENE
Cosmos 158 Rocket 3.6 18:55:38 10° SSW 19:00:35 81° ESE 19:00:45 79° ENE
CZ-2C R/B 3.0 18:57:03 10° S 19:02:02 76° WSW 19:06:51 10° NNW
COSMO-SKYMED 1 3.2 19:00:19 29° N 19:02:19 55° WNW 19:06:34 10° SSW
SAR-Lupe-4 4.5 19:03:33 48° WSW 19:03:33 48° WSW 19:06:33 10° SSW
X-37B 2.7 19:00:06 10° WSW 19:01:44 25° SW 19:01:44 25° SW
Cosmos 1238 Rocket 3.3 18:59:58 10° NNW 19:03:55 69° W 19:08:44 10° S
Cosmos 923 Rocket 3.9 18:59:19 10° SSW 19:04:31 89° ESE 19:05:13 68° NNE
Cosmos 1934 Rocket 3.9 19:00:03 10° N 19:06:28 77° E 19:12:45 10° SSE
Helios 1A Rocket 3.7 19:09:39 47° NW 19:09:39 47° NW 19:12:46 10° NNW
CSL-04 Debris 4.0 19:09:13 63° SE 19:10:06 80° ENE 19:15:37 10° NNW
Cosmos 2228 Rocket 3.5 19:06:43 10° SSW 19:11:12 61° WNW 19:12:02 51° NNW
Cosmos 1812 3.8 19:08:52 10° SSW 19:11:43 41° WSW 19:11:43 41° WSW
USA 281 3.2 19:07:32 10° SSE 19:14:06 78° WSW 19:20:44 10° NNW
Nadezhda 3 Rocket 4.3 19:08:55 10° SSW 19:15:15 69° W 19:21:38 10° N
H-2A R/B 2.0 19:15:55 74° S 19:16:24 85° WSW 19:21:33 10° NNW
CZ-4 R/B 2.4 19:17:28 44° WNW 19:17:28 44° WNW 19:20:49 10° NNW
USA 267 3.1 19:21:32 68° E 19:22:26 81° NNE 19:28:59 10° NW
Cosmos 44 Rocket 4.1 19:17:46 10° NW 19:22:48 53° WSW 19:23:56 44° SSW
Meteor 1-11 Rocket 3.9 19:17:43 10° NNW 19:23:30 72° W 19:29:21 10° S
CSL-04 Rocket 3.8 19:25:43 64° NNW 19:25:43 64° NNW 19:30:11 10° NNW
Lacrosse 4 Rocket 4.0 19:22:57 10° SSW 19:23:20 12° SSW 19:23:20 12° SSW
Cosmos 1680 Rocket 3.8 19:26:08 10° SSW 19:30:41 63° WSW 19:30:41 63° WSW
Cosmos 1943 4.0 19:35:31 10° SW 19:40:59 47° NW 19:41:49 44° NNW
Okean-O 4.4 19:37:33 10° SSW 19:41:28 30° W 19:45:25 10° NNW
ISS -0.4 19:38:35 10° WNW 19:38:53 12° WNW 19:38:53 12° WNW
ARGOS 4.3 19:50:03 35° NNW 19:50:03 35° NNW 19:53:13 10° NNW
CENTAUR R/B 3.1 19:50:45 10° SW 19:54:58 51° SW 19:54:58 51° SW
NOSS 3-2 (C) 4.5 19:59:26 10° SW 20:02:39 37° SW 20:02:39 37° SW
USA 215 4.2 20:34:03 41° W 20:34:03 41° W 20:38:12 10° WSW
